1496718000.4,45301,18.44,73796.3,4.21,3.49,3.53,0,*72
1496718001.59,45302,18.5,73810.0,4.21,3.55,3.55,0,*7A
1496718002.78,45303,18.5,73810.0,4.21,3.55,3.55,0,*7B
1496718003.98,45304,18.5,73806.8,4.21,3.55,3.55,0,*7C
1496718005.17,45305,18.5,73808.5,4.21,3.55,3.55,0,*7D
1496718006.42,45306,18.5,73808.3,4.21,3.53,3.53,0,*7E
1496718007.66,45307,18.5,73804.5,4.21,3.53,3.53,0,*7F
1496718008.9,45308,18.5,73806.0,4.21,3.53,3.53,0,*70
1496718010.15,45309,18.5,73808.5,4.21,3.53,3.53,0,*71
1496718011.31,45310,18.5,73806.5,4.23,3.55,3.55,0,*7B
1496718012.51,45311,18.5,73806.5,4.23,3.53,3.55,0,*7C
1496718013.7,45312,18.5,73804.0,4.25,3.55,3.55,0,*7F
1496718014.91,45313,18.5,73804.0,4.21,3.55,3.53,0,*7C
1496718016.13,45314,18.5,73806.8,4.21,3.53,3.55,0,*7B
1496718017.33,45315,18.44,73804.3,4.21,3.55,3.63,0,*79
1496718018.58,45316,18.44,73808.0,4.21,3.67,3.67,0,*7F
1496718019.78,45317,18.44,73806.3,4.21,3.63,3.63,0,*7E
1496718020.98,45318,18.5,73808.5,4.21,3.63,3.63,0,*71
1496718022.18,45319,18.44,73808.8,4.23,3.67,3.63,0,*76
1496718023.41,45320,18.5,73812.5,4.23,3.67,3.67,0,*78
1496718024.64,45321,18.44,73814.3,4.23,3.67,3.67,0,*79
1496718025.87,45322,18.5,73818.8,4.23,3.67,3.67,0,*7A
1496718027.1,45323,18.5,73818.3,4.23,3.75,3.75,0,*7B
1496718028.33,45324,18.44,73814.0,4.23,3.75,3.75,0,*7C
1496718029.53,45325,18.5,73816.3,4.25,3.81,3.81,0,*7B
1496718030.76,45326,18.5,73814.5,4.23,3.75,3.67,0,*7D
1496718032.01,45327,18.5,73816.5,4.25,3.71,3.71,0,*79
1496718033.21,45328,18.5,73814.5,4.23,3.63,3.67,0,*74
1496718034.46,45329,18.5,73816.3,4.25,3.67,3.71,0,*70
1496718035.72,45330,18.5,73810.8,4.25,3.67,3.71,0,*78
1496718036.97,45331,18.44,73802.5,4.25,3.71,3.71,0,*7E
1496718038.22,45332,18.5,73802.0,4.25,3.79,3.71,0,*75
1496718039.47,45333,18.5,73798.3,4.25,3.79,3.71,0,*74
1496718040.7,45334,18.5,73808.3,4.25,3.81,3.79,0,*7C
1496718041.93,45335,18.44,73808.8,4.25,3.79,3.81,0,*7D
1496718043.15,45336,18.5,73808.3,4.25,3.59,3.67,0,*74
1496718044.4,45337,18.44,73800.0,4.25,3.67,3.67,0,*78
1496718045.62,45338,18.44,73800.0,4.25,3.67,3.59,0,*7A
1496718046.88,45339,18.5,73800.3,4.25,3.67,3.67,0,*76
1496718048.13,45340,18.44,73796.5,4.25,3.67,3.67,0,*78
1496718049.35,45341,18.44,73800.0,4.25,3.67,3.55,0,*78
1496718050.55,45342,18.44,73800.5,4.25,3.59,3.59,0,*7A
1496718051.74,45343,18.5,73802.3,4.25,3.59,3.59,0,*7B
1496718052.93,45344,18.44,73804.3,4.25,3.55,3.55,0,*7C
1496718054.12,45345,18.44,73806.0,4.25,3.55,3.55,0,*7D
1496718055.32,45346,18.44,73810.5,4.25,3.55,3.59,0,*72
1496718056.54,45347,18.5,73812.3,4.25,3.67,3.59,0,*72
1496718057.76,45348,18.5,73808.8,4.25,3.59,3.67,0,*7D
1496718058.95,45349,18.44,73810.3,4.25,3.55,3.55,0,*71
1496718060.15,45350,18.44,73808.3,4.25,3.59,3.59,0,*79
1496718061.32,45351,18.5,73810.8,4.23,3.55,3.55,0,*7E
1496718062.53,45352,18.5,73812.0,4.23,3.53,3.53,0,*7D
1496718063.72,45353,18.5,73808.3,4.25,3.55,3.55,0,*7A
1496718064.98,45354,18.44,73806.5,4.25,3.45,3.45,0,*7D
1496718066.2,45355,18.5,73808.5,4.23,3.49,3.49,0,*7A
1496718067.42,45356,18.5,73810.0,4.23,3.53,3.49,0,*72
1496718068.61,45357,18.5,73810.3,4.23,3.55,3.53,0,*7E
1496718069.83,45358,18.44,73808.5,4.25,3.55,3.53,0,*77
1496718071.05,45359,18.5,73814.0,4.23,3.49,3.49,0,*76
1496718072.27,45360,18.5,73814.8,4.23,3.49,3.49,0,*7C
1496718073.5,45361,18.44,73814.0,4.23,3.49,3.49,0,*7D
1496718074.69,45362,18.44,73808.5,4.25,3.59,3.55,0,*74
1496718075.86,45363,18.44,73812.0,4.23,3.59,3.55,0,*73
1496718077.05,45364,18.44,73814.3,4.23,3.55,3.53,0,*7E
1496718078.31,45365,18.5,73822.0,4.25,3.67,3.71,0,*78
1496718079.54,45366,18.5,73822.8,4.23,3.75,3.67,0,*79
1496718080.76,45367,18.5,73822.8,4.23,3.67,3.67,0,*7B
1496718081.99,45368,18.44,73820.3,4.25,3.71,3.63,0,*71
1496718083.22,45369,18.5,73814.8,4.23,3.67,3.67,0,*75
1496718084.42,45370,18.44,73812.8,4.23,3.67,3.63,0,*79
1496718085.62,45371,18.44,73812.3,4.23,3.75,3.63,0,*7B
1496718086.87,45372,18.44,73814.8,4.25,3.71,3.67,0,*7E
1496718088.07,45373,18.44,73810.5,4.25,3.59,3.59,0,*78
1496718089.26,45374,18.5,73804.0,4.25,3.55,3.59,0,*73
1496718090.46,45375,18.44,73808.3,4.23,3.67,3.55,0,*79
1496718091.66,45376,18.5,73814.0,4.25,3.59,3.59,0,*7D
1496718092.85,45377,18.44,73814.3,4.25,3.59,3.59,0,*7C
1496718094.04,45378,18.44,73816.0,4.25,3.59,3.59,0,*73
1496718095.29,45379,18.44,73814.3,4.25,3.71,3.67,0,*75
1496718096.5,45380,18.44,73818.5,4.23,3.67,3.63,0,*76
1496718097.75,45381,18.44,73816.8,4.25,3.67,3.67,0,*75
1496718099.0,45382,18.44,73820.5,4.25,3.71,3.71,0,*76
1496718100.25,45383,18.44,73818.5,4.25,3.71,3.71,0,*77
1496718101.5,45384,18.44,73820.8,4.25,3.71,3.71,0,*70
1496718102.75,45385,18.44,73814.8,4.25,3.79,3.79,0,*71
1496718104.0,45386,18.5,73816.3,4.25,3.79,3.79,0,*72
1496718105.25,45387,18.5,73826.8,4.25,3.67,3.79,0,*7C
1496718106.5,45388,18.44,73820.8,4.25,3.71,3.79,0,*74
1496718107.7,45389,18.44,73816.0,4.27,3.67,3.59,0,*72
1496718108.87,45390,18.44,73814.0,4.27,3.55,3.55,0,*77
1496718110.03,45391,18.44,73814.3,4.27,3.55,3.55,0,*76
1496718111.2,45392,18.44,73808.8,4.27,3.63,3.63,0,*75
1496718112.44,45393,18.44,73800.3,4.29,3.75,3.75,0,*7A
1496718113.66,45394,18.44,73800.3,4.27,3.71,3.71,0,*73
1496718114.86,45395,18.44,73806.5,4.27,3.81,3.79,0,*75
1496718116.08,45396,18.44,73808.8,4.27,3.79,3.79,0,*71
1496718117.31,45397,18.44,73810.8,4.25,3.79,3.81,0,*75
1496718118.53,45398,18.44,73812.3,4.27,3.71,3.71,0,*7F
1496718119.75,45399,18.44,73814.0,4.27,3.71,3.67,0,*79
1496718120.99,45400,18.44,73814.3,4.29,3.75,3.71,0,*73
1496718122.22,45401,18.44,73808.3,4.29,3.71,3.75,0,*72
1496718123.43,45402,18.5,73814.8,4.29,3.67,3.63,0,*71
1496718124.66,45403,18.44,73810.8,4.27,3.71,3.71,0,*7A
1496718125.85,45404,18.44,73806.8,4.27,3.59,3.67,0,*70
1496718127.01,45405,18.44,73806.0,4.27,3.55,3.55,0,*7C
1496718128.23,45406,18.44,73802.3,4.27,3.53,3.53,0,*7F
1496718129.44,45407,18.44,73806.3,4.27,3.53,3.53,0,*7E
1496718130.61,45408,18.44,73808.0,4.27,3.59,3.59,0,*71
1496718131.81,45409,18.44,73812.0,4.27,3.67,3.59,0,*7D
1496718133.04,45410,18.44,73812.8,4.29,3.71,3.71,0,*76
1496718134.25,45411,18.44,73814.0,4.27,3.67,3.59,0,*74
1496718135.48,45412,18.44,73808.3,4.29,3.67,3.75,0,*77
1496718136.68,45413,18.44,73806.3,4.27,3.71,3.81,0,*74
1496718137.91,45414,18.44,73806.5,4.27,3.67,3.79,0,*73
1496718139.13,45415,18.44,73800.5,4.27,3.71,3.71,0,*7D
1496718140.35,45416,18.44,73802.8,4.27,3.71,3.79,0,*76
1496718141.58,45417,18.44,73806.3,4.27,3.67,3.71,0,*78
1496718142.81,45418,18.44,73808.0,4.27,3.67,3.67,0,*70
1496718144.03,45419,18.44,73814.5,4.27,3.67,3.67,0,*71
1496718145.26,45420,18.44,73814.0,4.27,3.67,3.67,0,*7B
1496718146.48,45421,18.44,73812.5,4.27,3.71,3.67,0,*7D
1496718147.7,45422,18.5,73808.3,4.27,3.71,3.79,0,*71
1496718148.9,45423,18.44,73804.5,4.27,3.59,3.67,0,*75
1496718150.06,45424,18.5,73804.3,4.27,3.55,3.55,0,*7F
1496718151.26,45425,18.44,73806.3,4.27,3.71,3.59,0,*74
1496718152.5,45426,18.44,73814.0,4.29,3.75,3.75,0,*73
1496718153.72,45427,18.44,73812.8,4.27,3.79,3.79,0,*7C
1496718154.89,45428,18.44,73812.0,4.27,3.81,3.81,0,*73
1496718156.12,45429,18.44,73804.3,4.27,3.71,3.71,0,*72
1496718157.33,45430,18.44,73800.0,4.29,3.75,3.81,0,*7F
1496718158.55,45431,18.44,73802.3,4.29,3.75,3.81,0,*7E
1496718159.75,45432,18.44,73804.0,4.29,3.81,3.75,0,*7D
1496718160.98,45433,18.44,73802.8,4.27,3.67,3.71,0,*7E
1496718162.16,45434,18.44,73810.8,4.29,3.59,3.59,0,*70
1496718163.33,45435,18.44,73816.0,4.29,3.55,3.59,0,*7D
1496718164.5,45436,18.44,73814.0,4.27,3.59,3.59,0,*7C
1496718165.7,45437,18.44,73810.3,4.29,3.71,3.63,0,*70
1496718166.93,45438,18.44,73808.8,4.27,3.71,3.79,0,*7A
1496718168.14,45439,18.44,73806.8,4.29,3.75,3.81,0,*76
1496718169.37,45440,18.5,73810.8,4.27,3.67,3.67,0,*7D
1496718170.57,45441,18.44,73804.0,4.29,3.59,3.71,0,*78
1496718171.76,45442,18.5,73810.5,4.27,3.59,3.67,0,*72
1496718172.93,45443,18.44,73814.0,4.27,3.55,3.55,0,*7E
1496718174.11,45444,18.44,73810.0,4.29,3.63,3.63,0,*77
1496718175.27,45445,18.44,73800.5,4.27,3.55,3.55,0,*78
1496718176.44,45446,18.44,73802.5,4.29,3.59,3.59,0,*75
1496718177.62,45447,18.5,73800.0,4.29,3.55,3.59,0,*78
1496718178.82,45448,18.44,73806.3,4.29,3.49,3.55,0,*76
1496718180.01,45449,18.44,73820.5,4.27,3.53,3.55,0,*72
1496718181.18,45450,18.44,73816.5,4.29,3.59,3.63,0,*7B
1496718182.35,45451,18.44,73806.0,4.27,3.59,3.63,0,*74
1496718183.52,45452,18.44,73798.3,4.27,3.55,3.55,0,*7E
1496718184.69,45453,18.44,73798.5,4.29,3.55,3.59,0,*7D
1496718185.91,45454,18.44,73806.0,4.27,3.53,3.45,0,*7F
1496718187.13,45455,18.44,73804.5,4.27,3.33,3.41,0,*7C
1496718188.36,45456,18.44,73806.3,4.29,3.45,3.37,0,*71
1496718189.59,45457,18.5,73812.0,4.27,3.41,3.33,0,*7E
1496718190.82,45458,18.44,73810.3,4.27,3.41,3.45,0,*70
1496718192.03,45459,18.44,73814.8,4.27,3.53,3.53,0,*75
1496718193.21,45460,18.5,73814.0,4.29,3.59,3.63,0,*78
1496718194.39,45461,18.44,73808.5,4.29,3.59,3.59,0,*70
1496718195.6,45462,18.44,73808.8,4.27,3.53,3.53,0,*7D
1496718196.84,45463,18.44,73810.0,4.25,3.53,3.53,0,*7E
1496718198.01,45464,18.44,73814.8,4.27,3.59,3.59,0,*7B
1496718199.17,45465,18.44,73808.8,4.27,3.55,3.55,0,*7A
1496718200.34,45466,18.44,73804.5,4.27,3.55,3.55,0,*79
1496718201.55,45467,18.44,73802.0,4.25,3.55,3.53,0,*7C
1496718202.74,45468,18.44,73804.0,4.27,3.53,3.55,0,*71
1496718203.91,45469,18.44,73806.0,4.27,3.59,3.59,0,*76
1496718205.13,45470,18.44,73806.5,4.27,3.71,3.71,0,*7E
1496718206.36,45471,18.5,73806.5,4.27,3.67,3.67,0,*7F
1496718207.52,45472,18.44,73804.5,4.27,3.55,3.55,0,*7C
1496718208.69,45473,18.44,73802.5,4.27,3.55,3.59,0,*71
1496718209.85,45474,18.5,73806.3,4.27,3.55,3.55,0,*7A
1496718211.01,45475,18.44,73800.3,4.27,3.55,3.55,0,*7B
1496718212.19,45476,18.44,73804.3,4.29,3.59,3.55,0,*7A
1496718213.36,45477,18.44,73810.5,4.27,3.59,3.59,0,*79
1496718214.58,45478,18.44,73806.3,4.27,3.71,3.67,0,*71
1496718215.82,45479,18.44,73808.8,4.29,3.75,3.75,0,*79
1496718217.05,45480,18.44,73808.0,4.27,3.67,3.71,0,*76
1496718218.25,45481,18.44,73804.8,4.27,3.67,3.59,0,*7D
1496718219.41,45482,18.44,73806.8,4.27,3.55,3.55,0,*73
1496718220.58,45483,18.44,73808.5,4.27,3.59,3.59,0,*72
1496718221.75,45484,18.44,73806.8,4.29,3.59,3.59,0,*7B
1496718222.92,45485,18.44,73808.8,4.27,3.55,3.55,0,*74
1496718224.08,45486,18.44,73808.3,4.27,3.55,3.55,0,*77
1496718225.31,45487,18.44,73810.8,4.27,3.45,3.41,0,*72
1496718226.54,45488,18.44,73810.5,4.27,3.41,3.41,0,*79
1496718227.75,45489,18.44,73806.5,4.27,3.53,3.53,0,*78
1496718228.97,45490,18.44,73804.5,4.27,3.53,3.45,0,*77
1496718230.19,45491,18.44,73806.0,4.27,3.53,3.45,0,*76
1496718231.45,45492,18.44,73806.8,4.25,3.41,3.45,0,*74
1496718232.68,45493,18.44,73808.5,4.27,3.41,3.41,0,*73
1496718233.9,45494,18.44,73806.8,4.27,3.33,3.33,0,*74
1496718235.13,45495,18.44,73812.5,4.27,3.41,3.41,0,*75
1496718236.36,45496,18.44,73810.0,4.27,3.41,3.45,0,*72
1496718237.6,45497,18.44,73810.5,4.25,3.53,3.53,0,*75
1496718238.82,45498,18.44,73808.8,4.23,3.49,3.49,0,*7C
1496718240.06,45499,18.44,73808.8,4.25,3.53,3.53,0,*7B
1496718241.31,45500,18.44,73808.0,4.25,3.53,3.53,0,*7A
1496718242.56,45501,18.44,73806.8,4.25,3.41,3.45,0,*7F
1496718243.82,45502,18.44,73810.3,4.25,3.41,3.41,0,*78
1496718245.06,45503,18.44,73814.0,4.25,3.53,3.53,0,*79
1496718246.3,45504,18.44,73824.0,4.25,3.53,3.53,0,*7E
1496718247.52,45505,18.44,73830.0,4.25,3.59,3.53,0,*75
1496718248.71,45506,18.44,73826.3,4.25,3.59,3.55,0,*70
1496718249.91,45507,18.44,73818.8,4.25,3.59,3.59,0,*7D
1496718251.13,45508,18.44,73820.3,4.25,3.59,3.67,0,*7F
1496718252.3,45509,18.44,73820.5,4.23,3.63,3.63,0,*75
1496718253.55,45510,18.44,73818.0,4.25,3.67,3.67,0,*7B
1496718254.74,45511,18.44,73808.5,4.25,3.55,3.59,0,*76
1496718255.93,45512,18.44,73810.3,4.25,3.55,3.55,0,*79
1496718257.13,45513,18.44,73812.3,4.25,3.59,3.59,0,*78
1496718258.32,45514,18.44,73814.5,4.25,3.55,3.55,0,*7F
1496718259.51,45515,18.44,73814.8,4.25,3.59,3.59,0,*7E
1496718260.71,45516,18.44,73820.0,4.25,3.59,3.59,0,*7D
1496718261.9,45517,18.44,73818.3,4.25,3.59,3.55,0,*70
1496718263.15,45518,18.44,73818.0,4.25,3.67,3.67,0,*73
1496718264.34,45519,18.44,73810.8,4.25,3.55,3.59,0,*7E
1496718265.54,45520,18.44,73814.5,4.25,3.59,3.59,0,*78
1496718266.76,45521,18.44,73814.8,4.27,3.67,3.67,0,*7B
1496718267.99,45522,18.5,73822.0,4.27,3.67,3.71,0,*7F
1496718269.22,45523,18.44,73818.8,4.27,3.67,3.71,0,*7E
1496718270.42,45524,18.44,73818.0,4.27,3.67,3.59,0,*73
1496718271.61,45525,18.44,73820.3,4.25,3.55,3.59,0,*71
1496718272.8,45526,18.44,73814.8,4.25,3.55,3.59,0,*72
1496718273.99,45527,18.44,73814.3,4.27,3.55,3.53,0,*7B
1496718275.18,45528,18.44,73808.8,4.27,3.55,3.53,0,*74
1496718276.39,45529,18.44,73810.0,4.27,3.53,3.53,0,*73
1496718277.58,45530,18.44,73806.3,4.27,3.53,3.55,0,*7D
1496718278.74,45531,18.44,73806.0,4.27,3.55,3.55,0,*7A
1496718279.91,45532,18.44,73800.8,4.27,3.55,3.55,0,*79
1496718281.07,45533,18.44,73804.0,4.27,3.55,3.55,0,*78
1496718282.26,45534,18.44,73806.5,4.27,3.45,3.55,0,*7E
1496718283.48,45535,18.44,73806.0,4.25,3.53,3.55,0,*7A
1496718284.7,45536,18.44,73796.8,4.25,3.53,3.55,0,*79
1496718285.91,45537,18.5,73804.8,4.25,3.53,3.55,0,*78
1496718287.13,45538,18.44,73804.8,4.25,3.53,3.55,0,*77
1496718288.32,45539,18.44,73806.5,4.25,3.55,3.55,0,*70
1496718289.51,45540,18.44,73814.5,4.25,3.55,3.55,0,*7E
1496718290.71,45541,18.44,73814.0,4.25,3.59,3.59,0,*7F
1496718291.9,45542,18.44,73804.3,4.25,3.55,3.55,0,*7C
1496718293.09,45543,18.44,73804.3,4.25,3.55,3.59,0,*71
1496718294.28,45544,18.44,73806.8,4.25,3.59,3.55,0,*76
1496718295.5,45545,18.44,73810.5,4.25,3.55,3.53,0,*7D
1496718296.71,45546,18.44,73804.8,4.25,3.55,3.53,0,*7E
1496718297.95,45547,18.44,73810.8,4.25,3.53,3.53,0,*79
1496718299.17,45548,18.44,73808.8,4.25,3.53,3.55,0,*70
1496718300.36,45549,18.44,73810.0,4.25,3.59,3.59,0,*77
1496718301.55,45550,18.44,73804.8,4.25,3.55,3.55,0,*7F
1496718302.77,45551,18.44,73806.8,4.25,3.53,3.55,0,*78
1496718303.98,45552,18.44,73812.0,4.25,3.53,3.59,0,*77
1496718305.18,45553,18.44,73812.0,4.25,3.55,3.55,0,*7C
1496718306.34,45554,18.44,73810.5,4.27,3.55,3.55,0,*79
1496718307.53,45555,18.44,73814.8,4.27,3.53,3.55,0,*7E
1496718308.78,45556,18.44,73810.0,4.25,3.45,3.45,0,*79
1496718310.03,45557,18.44,73808.3,4.25,3.45,3.45,0,*78
1496718311.28,45558,18.44,73814.8,4.25,3.45,3.45,0,*77
1496718312.53,45559,18.44,73808.3,4.25,3.45,3.45,0,*76
1496718313.77,45560,18.44,73812.0,4.25,3.53,3.53,0,*7C
1496718315.0,45561,18.44,73814.3,4.23,3.49,3.49,0,*7B
1496718316.23,45562,18.44,73806.8,4.23,3.41,3.41,0,*78
1496718317.49,45563,18.44,73808.8,4.25,3.41,3.41,0,*7F
1496718318.74,45564,18.44,73812.5,4.25,3.33,3.33,0,*78
1496718319.94,45565,18.44,73810.8,4.23,3.37,3.29,0,*70
1496718321.16,45566,18.44,73810.3,4.23,3.37,3.37,0,*7C
1496718322.42,45567,18.44,73814.8,4.25,3.41,3.41,0,*7B
1496718323.64,45568,18.44,73810.3,4.23,3.37,3.37,0,*72
1496718324.85,45569,18.44,73810.3,4.23,3.37,3.29,0,*7C
1496718326.1,45570,18.44,73816.3,4.25,3.41,3.41,0,*7D
1496718327.33,45571,18.44,73820.0,4.23,3.49,3.49,0,*7A
1496718328.52,45572,18.44,73820.8,4.23,3.55,3.53,0,*7F
1496718329.69,45573,18.44,73820.0,4.23,3.63,3.63,0,*78
1496718330.88,45574,18.44,73824.5,4.23,3.63,3.67,0,*7B
1496718332.14,45575,18.44,73822.0,4.25,3.67,3.67,0,*78
1496718333.39,45576,18.44,73824.0,4.25,3.67,3.71,0,*7C
1496718334.62,45577,18.44,73822.3,4.23,3.75,3.75,0,*7C
1496718335.88,45578,18.44,73816.5,4.25,3.67,3.67,0,*75
1496718337.07,45579,18.44,73814.8,4.23,3.53,3.63,0,*71
1496718338.24,45580,18.44,73818.5,4.23,3.55,3.55,0,*74
1496718339.43,45581,18.44,73820.3,4.25,3.55,3.59,0,*7F
1496718340.6,45582,18.44,73826.0,4.23,3.63,3.63,0,*76
1496718341.8,45583,18.44,73820.8,4.23,3.59,3.67,0,*7A
1496718343.02,45584,18.44,73818.3,4.25,3.67,3.59,0,*7B
1496718344.27,45585,18.44,73822.8,4.25,3.71,3.67,0,*70
1496718345.49,45586,18.44,73820.0,4.25,3.59,3.67,0,*79
1496718346.69,45587,18.44,73822.0,4.25,3.59,3.59,0,*75
1496718347.88,45588,18.44,73816.5,4.25,3.55,3.55,0,*7A
1496718349.07,45589,18.44,73816.0,4.25,3.59,3.59,0,*7B
1496718350.27,45590,18.44,73818.5,4.23,3.59,3.67,0,*78
1496718351.49,45591,18.44,73818.3,4.25,3.59,3.67,0,*7F
1496718352.74,45592,18.44,73818.0,4.25,3.67,3.71,0,*76
1496718353.97,45593,18.44,73820.5,4.25,3.59,3.67,0,*7D
1496718355.22,45594,18.44,73816.8,4.25,3.67,3.67,0,*77
1496718356.47,45595,18.44,73818.3,4.25,3.67,3.71,0,*71
1496718357.72,45596,18.44,73816.8,4.25,3.71,3.67,0,*72
1496718358.95,45597,18.44,73812.8,4.27,3.79,3.71,0,*7E
1496718360.18,45598,18.44,73810.8,4.29,3.71,3.75,0,*73
1496718361.4,45599,18.44,73804.3,4.27,3.79,3.71,0,*70
1496718362.63,45600,18.44,73806.8,4.27,3.79,3.71,0,*73
1496718363.85,45601,18.44,73810.5,4.27,3.79,3.79,0,*7A
1496718365.08,45602,18.44,73806.8,4.27,3.67,3.67,0,*79
1496718366.25,45603,18.44,73804.5,4.29,3.59,3.59,0,*76
1496718367.43,45604,18.44,73804.0,4.29,3.59,3.59,0,*71
1496718368.65,45605,18.44,73806.3,4.27,3.45,3.53,0,*79
1496718369.87,45606,18.44,73806.8,4.27,3.53,3.45,0,*7A
1496718371.11,45607,18.44,73806.0,4.25,3.53,3.53,0,*7E
1496718372.36,45608,18.44,73814.3,4.25,3.45,3.53,0,*76
1496718373.6,45609,18.44,73808.3,4.25,3.53,3.53,0,*70
1496718374.81,45610,18.44,73808.0,4.25,3.53,3.55,0,*7E
1496718376.03,45611,18.44,73810.8,4.25,3.53,3.55,0,*7F
1496718377.25,45612,18.44,73804.8,4.27,3.53,3.45,0,*7F
1496718378.5,45613,18.44,73806.8,4.25,3.45,3.45,0,*7B
1496718379.74,45614,18.44,73804.0,4.25,3.53,3.53,0,*7C
1496718380.96,45615,18.44,73806.0,4.23,3.49,3.49,0,*7B
1496718382.18,45616,18.44,73810.5,4.25,3.55,3.53,0,*78
1496718383.4,45617,18.44,73812.0,4.25,3.59,3.67,0,*72
1496718384.65,45618,18.44,73812.5,4.25,3.67,3.71,0,*77
1496718385.91,45619,18.44,73808.5,4.25,3.67,3.67,0,*71
1496718387.16,45620,18.44,73806.3,4.25,3.67,3.67,0,*7B
1496718388.41,45621,18.44,73804.8,4.25,3.71,3.71,0,*7A
1496718389.63,45622,18.44,73806.5,4.27,3.71,3.71,0,*7B
1496718390.89,45623,18.44,73804.5,4.25,3.71,3.71,0,*78
1496718392.13,45624,18.44,73806.0,4.25,3.71,3.79,0,*77
1496718393.38,45625,18.44,73804.0,4.25,3.79,3.79,0,*7E
1496718394.64,45626,18.44,73806.3,4.25,3.79,3.71,0,*75
1496718395.86,45627,18.44,73806.8,4.27,3.79,3.79,0,*7E
1496718397.08,45628,18.44,73800.8,4.27,3.79,3.71,0,*79
1496718398.28,45629,18.44,73796.5,4.27,3.67,3.59,0,*7D
1496718399.45,45630,18.44,73804.5,4.27,3.55,3.55,0,*78
1496718400.61,45631,18.44,73812.0,4.27,3.59,3.55,0,*75
1496718401.8,45632,18.44,73818.0,4.27,3.53,3.59,0,*70
1496718402.97,45633,18.44,73820.8,4.27,3.59,3.59,0,*7B
1496718404.17,45634,18.44,73818.5,4.27,3.59,3.67,0,*71
1496718405.39,45635,18.44,73818.8,4.27,3.67,3.67,0,*7D
1496718406.62,45636,18.44,73812.5,4.27,3.67,3.71,0,*79
1496718407.84,45637,18.44,73810.0,4.27,3.71,3.71,0,*7F
1496718409.07,45638,18.44,73806.5,4.27,3.67,3.67,0,*70
1496718410.3,45639,18.44,73810.8,4.29,3.71,3.71,0,*7F
1496718411.53,45640,18.44,73814.0,4.27,3.79,3.71,0,*77
1496718412.75,45641,18.44,73818.3,4.27,3.71,3.71,0,*7E
1496718413.99,45642,18.44,73822.8,4.29,3.75,3.71,0,*77
1496718415.22,45643,18.44,73820.8,4.29,3.71,3.75,0,*76
1496718416.46,45644,18.44,73820.0,4.29,3.75,3.75,0,*75
1496718417.69,45645,18.44,73820.3,4.27,3.71,3.71,0,*7A
1496718418.9,45646,18.44,73816.0,4.29,3.75,3.81,0,*7C
1496718420.11,45647,18.44,73820.3,4.29,3.81,3.75,0,*7D
1496718421.33,45648,18.44,73818.0,4.27,3.79,3.79,0,*77
1496718422.56,45649,18.44,73816.5,4.29,3.71,3.71,0,*78
1496718423.79,45650,18.44,73818.5,4.27,3.71,3.75,0,*7A
1496718424.97,45651,18.44,73816.8,4.29,3.59,3.63,0,*78
1496718426.14,45652,18.44,73812.8,4.29,3.59,3.59,0,*72
1496718427.32,45653,18.44,73812.5,4.29,3.63,3.55,0,*76
1496718428.5,45654,18.44,73812.8,4.29,3.59,3.59,0,*74
1496718429.72,45655,18.44,73820.0,4.29,3.53,3.53,0,*75
1496718430.89,45656,18.44,73826.8,4.29,3.63,3.59,0,*7F
1496718432.06,45657,18.44,73828.0,4.27,3.59,3.55,0,*75
1496718433.23,45658,18.44,73818.8,4.27,3.55,3.55,0,*76
1496718434.4,45659,18.44,73816.3,4.29,3.59,3.59,0,*79
1496718435.62,45660,18.44,73818.3,4.27,3.45,3.53,0,*7A
1496718436.84,45661,18.44,73816.5,4.29,3.53,3.53,0,*72
1496718438.01,45662,18.44,73818.5,4.27,3.59,3.59,0,*7F
1496718439.19,45663,18.44,73808.0,4.29,3.59,3.59,0,*70
1496718440.36,45664,18.44,73808.0,4.27,3.59,3.59,0,*79
1496718441.52,45665,18.44,73810.8,4.27,3.59,3.55,0,*74
1496718442.69,45666,18.44,73808.0,4.27,3.55,3.55,0,*7B
1496718443.88,45667,18.44,73810.0,4.27,3.55,3.45,0,*7B
1496718445.11,45668,18.44,73810.8,4.27,3.41,3.41,0,*75
1496718446.34,45669,18.44,73812.5,4.27,3.45,3.41,0,*70
1496718447.56,45670,18.44,73810.3,4.27,3.53,3.45,0,*7B
1496718448.79,45671,18.44,73814.3,4.27,3.41,3.41,0,*7D
1496718450.01,45672,18.44,73814.3,4.27,3.33,3.45,0,*7F
1496718451.23,45673,18.44,73814.3,4.27,3.53,3.53,0,*7F
1496718452.47,45674,18.44,73812.5,4.25,3.45,3.53,0,*7D
1496718453.72,45675,18.44,73814.3,4.25,3.53,3.45,0,*7C
1496718454.97,45676,18.44,73810.8,4.25,3.45,3.45,0,*78
1496718456.21,45677,18.44,73808.5,4.25,3.53,3.53,0,*79
1496718457.45,45678,18.44,73812.3,4.25,3.53,3.53,0,*76
1496718458.71,45679,18.44,73812.0,4.25,3.41,3.41,0,*77
1496718459.94,45680,18.44,73814.0,4.23,3.41,3.49,0,*7F
1496718461.18,45681,18.44,73810.8,4.25,3.53,3.53,0,*70
1496718462.44,45682,18.44,73808.3,4.25,3.45,3.41,0,*77
1496718463.64,45683,18.44,73804.5,4.23,3.41,3.29,0,*7A
1496718464.9,45684,18.44,73808.3,4.25,3.41,3.41,0,*75
1496718466.12,45685,18.44,73810.5,4.23,3.37,3.37,0,*72
1496718467.37,45686,18.44,73814.3,4.25,3.53,3.45,0,*70
1496718468.62,45687,18.44,73812.0,4.25,3.45,3.41,0,*72
1496718469.85,45688,18.44,73806.5,4.23,3.49,3.41,0,*77
1496718471.09,45689,18.44,73806.5,4.23,3.41,3.41,0,*7E
1496718472.33,45690,18.44,73800.5,4.25,3.53,3.49,0,*7B
1496718473.58,45691,18.44,73802.3,4.25,3.45,3.45,0,*71
1496718474.78,45692,18.44,73804.8,4.23,3.37,3.29,0,*7B
1496718475.96,45693,18.44,73802.8,4.23,3.29,3.29,0,*75
1496718477.14,45694,18.44,73804.3,4.23,3.25,3.25,0,*72
1496718478.36,45695,18.44,73804.3,4.23,3.49,3.49,0,*73
1496718479.55,45696,18.44,73802.5,4.25,3.55,3.55,0,*76
1496718480.72,45697,18.44,73800.5,4.23,3.55,3.55,0,*71
1496718481.89,45698,18.44,73804.0,4.23,3.55,3.55,0,*7E
1496718483.06,45699,18.44,73806.0,4.23,3.63,3.55,0,*7A
1496718484.31,45700,18.44,73816.0,4.25,3.71,3.71,0,*78
1496718485.54,45701,18.44,73812.0,4.23,3.67,3.67,0,*7F
1496718486.76,45702,18.44,73808.0,4.25,3.67,3.59,0,*77
1496718487.93,45703,18.44,73808.5,4.23,3.55,3.55,0,*7D
1496718489.12,45704,18.44,73810.3,4.25,3.59,3.59,0,*7C
1496718490.38,45705,18.44,73808.3,4.25,3.67,3.67,0,*7D
1496718491.59,45706,18.44,73810.3,4.23,3.53,3.53,0,*78
1496718492.82,45707,18.44,73808.0,4.23,3.41,3.49,0,*71
1496718494.07,45708,18.44,73812.3,4.25,3.45,3.53,0,*77
1496718495.31,45709,18.44,73810.3,4.25,3.53,3.53,0,*71
1496718496.53,45710,18.44,73808.5,4.23,3.49,3.49,0,*7F
1496718497.76,45711,18.44,73810.8,4.23,3.53,3.49,0,*75
1496718498.99,45712,18.44,73808.8,4.23,3.41,3.49,0,*75
1496718500.22,45713,18.44,73806.5,4.23,3.41,3.49,0,*74
1496718501.47,45714,18.44,73804.5,4.25,3.45,3.45,0,*7D
1496718502.69,45715,18.44,73806.0,4.27,3.45,3.33,0,*7F
1496718503.95,45716,18.44,73806.0,4.25,3.41,3.33,0,*7A
1496718505.18,45717,18.44,73810.3,4.23,3.41,3.41,0,*78
1496718506.4,45718,18.44,73810.5,4.23,3.49,3.49,0,*77
1496718507.63,45719,18.44,73810.5,4.23,3.49,3.49,0,*76
1496718508.86,45720,18.44,73810.8,4.23,3.41,3.41,0,*7C
1496718510.09,45721,18.44,73812.8,4.23,3.49,3.49,0,*7D
1496718511.28,45722,18.44,73812.8,4.23,3.55,3.53,0,*78
1496718512.47,45723,18.44,73812.3,4.21,3.55,3.55,0,*7D
1496718513.66,45724,18.44,73812.8,4.23,3.55,3.67,0,*79
1496718514.88,45725,18.44,73810.5,4.23,3.53,3.53,0,*79
1496718516.1,45726,18.44,73810.5,4.25,3.55,3.53,0,*7A
1496718517.26,45727,18.44,73808.5,4.23,3.55,3.59,0,*77
1496718518.48,45728,18.44,73810.3,4.25,3.59,3.67,0,*7F
1496718519.68,45729,18.44,73808.5,4.25,3.59,3.59,0,*73
1496718520.9,45730,18.44,73810.5,4.23,3.53,3.53,0,*7D
1496718522.11,45731,18.44,73812.3,4.23,3.53,3.53,0,*7C
1496718523.3,45732,18.44,73812.3,4.25,3.55,3.55,0,*79
1496718524.52,45733,18.44,73816.3,4.23,3.53,3.53,0,*7E
1496718525.71,45734,18.44,73812.0,4.23,3.53,3.55,0,*7F
1496718526.95,45735,18.44,73808.5,4.25,3.53,3.53,0,*7E
1496718528.18,45736,18.44,73808.5,4.23,3.49,3.49,0,*7B
1496718529.41,45737,18.44,73808.0,4.23,3.41,3.41,0,*7A
1496718530.64,45738,18.44,73808.8,4.23,3.49,3.49,0,*75